Time,TemperatureF,DewpointF,PressureIn,WindDirection,WindDirectionDegrees,WindSpeedMPH,WindSpeedGustMPH,Humidity,HourlyPrecipIn,Conditions,Clouds,dailyrainin,SolarRadiationWatts/m^2,SoftwareType,DateUTC
2013-07-17 00:02:00,74.0,72.0,-100.00,South,181,0.0,2.0,92,0.00,,,-99.99,0.000000,,2013-07-17 05:02:00,
2013-07-17 00:11:00,74.0,72.0,-100.00,South,181,0.0,2.0,92,0.00,,,-99.99,0.000000,,2013-07-17 05:11:00,
2013-07-17 00:22:00,74.0,72.0,-100.00,South,181,0.0,2.0,92,0.00,,,-99.99,0.000000,,2013-07-17 05:22:00,
2013-07-17 00:52:00,73.0,71.0,-100.00,NE,43,0.0,2.0,93,0.00,,,-99.99,0.000000,,2013-07-17 05:52:00,
2013-07-17 01:01:00,73.0,71.0,-100.00,NE,43,0.0,2.0,93,0.00,,,-99.99,0.000000,,2013-07-17 06:01:00,
2013-07-17 01:11:00,73.0,71.0,-100.00,NE,43,0.0,2.0,93,0.00,,,-99.99,0.000000,,2013-07-17 06:11:00,
2013-07-17 01:22:00,73.0,71.0,-100.00,NE,43,0.0,2.0,93,0.00,,,-99.99,0.000000,,2013-07-17 06:22:00,
2013-07-17 01:52:00,73.0,71.0,-100.00,NNE,25,0.0,3.0,94,0.00,,,-99.99,0.000000,,2013-07-17 06:52:00,
2013-07-17 02:01:00,73.0,71.0,-100.00,NNE,25,0.0,3.0,94,0.00,,,-99.99,0.000000,,2013-07-17 07:01:00,
2013-07-17 02:11:00,73.0,71.0,-100.00,NNE,25,0.0,3.0,94,0.00,,,-99.99,0.000000,,2013-07-17 07:11:00,
2013-07-17 02:22:00,73.0,71.0,-100.00,NNE,25,0.0,3.0,94,0.00,,,-99.99,0.000000,,2013-07-17 07:22:00,
2013-07-17 02:52:00,73.0,71.0,-100.00,NE,49,0.0,0.0,94,0.00,,,-99.99,0.000000,,2013-07-17 07:52:00,
2013-07-17 03:01:00,73.0,71.0,-100.00,NE,49,0.0,0.0,94,0.00,,,-99.99,0.000000,,2013-07-17 08:01:00,
2013-07-17 03:11:00,73.0,71.0,-100.00,NE,49,0.0,0.0,94,0.00,,,-99.99,0.000000,,2013-07-17 08:11:00,
2013-07-17 03:22:00,73.0,71.0,-100.00,NE,49,0.0,0.0,94,0.00,,,-99.99,0.000000,,2013-07-17 08:22:00,
2013-07-17 03:53:00,72.0,70.0,-100.00,NNW,333,0.0,0.0,94,0.00,,,-99.99,0.000000,,2013-07-17 08:53:00,
2013-07-17 04:02:00,72.0,70.0,-100.00,NNW,333,0.0,0.0,94,0.00,,,-99.99,0.000000,,2013-07-17 09:02:00,
2013-07-17 04:12:00,72.0,70.0,-100.00,NNW,333,0.0,0.0,94,0.00,,,-99.99,0.000000,,2013-07-17 09:12:00,
2013-07-17 04:22:00,72.0,70.0,-100.00,NNW,333,0.0,0.0,94,0.00,,,-99.99,0.000000,,2013-07-17 09:22:00,
2013-07-17 04:52:00,72.0,70.0,-100.00,NNE,16,1.0,4.0,94,0.00,,,-99.99,0.000000,,2013-07-17 09:52:00,
2013-07-17 05:01:00,72.0,70.0,-100.00,NNE,16,1.0,4.0,94,0.00,,,-99.99,0.000000,,2013-07-17 10:01:00,
2013-07-17 05:11:00,72.0,70.0,-100.00,NNE,16,1.0,4.0,94,0.00,,,-99.99,0.000000,,2013-07-17 10:11:00,
2013-07-17 05:22:00,72.0,70.0,-100.00,NNE,16,1.0,4.0,94,0.00,,,-99.99,0.000000,,2013-07-17 10:22:00,
2013-07-17 05:52:00,72.0,70.0,-100.00,NNE,16,1.0,4.0,94,0.00,,,-99.99,0.000000,,2013-07-17 10:52:00,
2013-07-17 06:02:00,72.0,70.0,-100.00,NNE,16,1.0,4.0,94,0.00,,,-99.99,0.000000,,2013-07-17 11:02:00,
2013-07-17 06:11:00,72.0,70.0,-100.00,NNE,16,1.0,4.0,94,0.00,,,-99.99,0.000000,,2013-07-17 11:11:00,
2013-07-17 06:22:00,72.0,70.0,-100.00,NNE,16,1.0,4.0,94,0.00,,,-99.99,0.000000,,2013-07-17 11:22:00,
2013-07-17 06:52:00,72.0,70.0,-100.00,NNE,33,1.0,3.0,94,0.00,,,-99.99,5.000000,,2013-07-17 11:52:00,
2013-07-17 07:01:00,72.0,70.0,-100.00,NNE,33,1.0,3.0,94,0.00,,,-99.99,5.000000,,2013-07-17 12:01:00,
2013-07-17 07:12:00,72.0,70.0,-100.00,NNE,33,1.0,3.0,94,0.00,,,-99.99,5.000000,,2013-07-17 12:12:00,
2013-07-17 07:22:00,72.0,70.0,-100.00,NNE,33,1.0,3.0,94,0.00,,,-99.99,5.000000,,2013-07-17 12:22:00,
2013-07-17 07:53:00,77.0,73.0,-100.00,NNE,30,2.0,7.0,88,0.00,,,-99.99,110.000000,,2013-07-17 12:53:00,
2013-07-17 08:01:00,77.0,73.0,-100.00,NNE,30,2.0,7.0,88,0.00,,,-99.99,110.000000,,2013-07-17 13:01:00,
2013-07-17 08:12:00,77.0,73.0,-100.00,NNE,30,2.0,7.0,88,0.00,,,-99.99,110.000000,,2013-07-17 13:12:00,
2013-07-17 08:22:00,77.0,73.0,-100.00,NNE,30,2.0,7.0,88,0.00,,,-99.99,110.000000,,2013-07-17 13:22:00,
2013-07-17 08:53:00,83.0,73.0,-100.00,East,81,4.0,9.0,73,0.00,,,-99.99,355.000000,,2013-07-17 13:53:00,
2013-07-17 09:02:00,83.0,73.0,-100.00,East,81,4.0,9.0,73,0.00,,,-99.99,355.000000,,2013-07-17 14:02:00,
2013-07-17 09:11:00,83.0,73.0,-100.00,East,81,4.0,9.0,73,0.00,,,-99.99,355.000000,,2013-07-17 14:11:00,
2013-07-17 09:22:00,83.0,73.0,-100.00,East,81,4.0,9.0,73,0.00,,,-99.99,355.000000,,2013-07-17 14:22:00,
2013-07-17 09:52:00,86.0,73.0,-100.00,NE,55,5.0,10.0,66,0.00,,,-99.99,583.000000,,2013-07-17 14:52:00,
2013-07-17 10:02:00,86.0,73.0,-100.00,NE,55,5.0,10.0,66,0.00,,,-99.99,583.000000,,2013-07-17 15:02:00,
2013-07-17 10:12:00,86.0,73.0,-100.00,NE,55,5.0,10.0,66,0.00,,,-99.99,583.000000,,2013-07-17 15:12:00,
2013-07-17 10:22:00,86.0,73.0,-100.00,NE,55,5.0,10.0,66,0.00,,,-99.99,583.000000,,2013-07-17 15:22:00,
2013-07-17 10:52:00,88.0,72.0,-100.00,East,87,6.0,10.0,59,0.00,,,-99.99,806.000000,,2013-07-17 15:52:00,
2013-07-17 11:02:00,88.0,72.0,-100.00,East,87,6.0,10.0,59,0.00,,,-99.99,806.000000,,2013-07-17 16:02:00,
2013-07-17 11:11:00,88.0,72.0,-100.00,East,87,6.0,10.0,59,0.00,,,-99.99,806.000000,,2013-07-17 16:11:00,
2013-07-17 11:22:00,88.0,72.0,-100.00,East,87,6.0,10.0,59,0.00,,,-99.99,806.000000,,2013-07-17 16:22:00,
2013-07-17 11:52:00,90.0,70.0,-100.00,East,81,7.0,12.0,52,0.00,,,0.07,950.000000,,2013-07-17 16:52:00,
2013-07-17 12:02:00,90.0,70.0,-100.00,East,81,7.0,12.0,52,0.00,,,0.07,950.000000,,2013-07-17 17:02:00,
2013-07-17 12:11:00,90.0,70.0,-100.00,East,81,7.0,12.0,52,0.00,,,0.07,950.000000,,2013-07-17 17:11:00,
2013-07-17 12:22:00,90.0,70.0,-100.00,East,81,7.0,12.0,52,0.00,,,0.07,950.000000,,2013-07-17 17:22:00,
2013-07-17 12:52:00,91.0,70.0,-100.00,ESE,106,5.0,15.0,50,0.00,,,0.07,1120.000000,,2013-07-17 17:52:00,
2013-07-17 13:01:00,91.0,70.0,-100.00,ESE,106,5.0,15.0,50,0.00,,,0.07,1120.000000,,2013-07-17 18:01:00,
2013-07-17 13:11:00,91.0,70.0,-100.00,ESE,106,5.0,15.0,50,0.00,,,0.07,1120.000000,,2013-07-17 18:11:00,
2013-07-17 13:22:00,91.0,70.0,-100.00,ESE,106,5.0,15.0,50,0.00,,,0.07,1120.000000,,2013-07-17 18:22:00,
2013-07-17 13:52:00,89.0,71.0,-100.00,SE,140,6.0,14.0,56,0.00,,,0.07,856.000000,,2013-07-17 18:52:00,
2013-07-17 14:01:00,89.0,71.0,-100.00,SE,140,6.0,14.0,56,0.00,,,0.07,856.000000,,2013-07-17 19:01:00,
2013-07-17 14:11:00,89.0,71.0,-100.00,SE,140,6.0,14.0,56,0.00,,,0.07,856.000000,,2013-07-17 19:11:00,
2013-07-17 14:22:00,89.0,71.0,-100.00,SE,140,6.0,14.0,56,0.00,,,0.07,856.000000,,2013-07-17 19:22:00,
2013-07-17 14:53:00,88.0,73.0,-100.00,SSE,152,6.0,11.0,61,0.00,,,0.00,903.000000,,2013-07-17 19:53:00,
2013-07-17 15:02:00,88.0,73.0,-100.00,SSE,152,6.0,11.0,61,0.00,,,0.00,903.000000,,2013-07-17 20:02:00,
2013-07-17 15:11:00,88.0,73.0,-100.00,SSE,152,6.0,11.0,61,0.00,,,0.00,903.000000,,2013-07-17 20:11:00,
2013-07-17 15:22:00,88.0,73.0,-100.00,SSE,152,6.0,11.0,61,0.00,,,0.00,903.000000,,2013-07-17 20:22:00,
2013-07-17 15:53:00,89.0,72.0,-100.00,SSE,158,6.0,12.0,58,0.00,,,0.00,965.000000,,2013-07-17 20:53:00,
2013-07-17 16:02:00,89.0,72.0,-100.00,SSE,158,6.0,12.0,58,0.00,,,0.00,965.000000,,2013-07-17 21:02:00,
2013-07-17 16:12:00,89.0,72.0,-100.00,SSE,158,6.0,12.0,58,0.00,,,0.00,965.000000,,2013-07-17 21:12:00,
2013-07-17 16:22:00,89.0,72.0,-100.00,SSE,158,6.0,12.0,58,0.00,,,0.00,965.000000,,2013-07-17 21:22:00,
2013-07-17 16:53:00,88.0,72.0,-100.00,SE,133,7.0,13.0,59,0.00,,,0.00,802.000000,,2013-07-17 21:53:00,
2013-07-17 17:01:00,88.0,72.0,-100.00,SE,133,7.0,13.0,59,0.00,,,0.00,802.000000,,2013-07-17 22:01:00,
2013-07-17 17:11:00,88.0,72.0,-100.00,SE,133,7.0,13.0,59,0.00,,,0.00,802.000000,,2013-07-17 22:11:00,
2013-07-17 17:22:00,88.0,72.0,-100.00,SE,133,7.0,13.0,59,0.00,,,0.00,802.000000,,2013-07-17 22:22:00,
2013-07-17 17:53:00,87.0,72.0,-100.00,South,184,4.0,12.0,61,0.00,,,0.00,337.000000,,2013-07-17 22:53:00,
2013-07-17 18:02:00,87.0,72.0,-100.00,South,184,4.0,12.0,61,0.00,,,0.00,337.000000,,2013-07-17 23:02:00,
2013-07-17 18:11:00,87.0,72.0,-100.00,South,184,4.0,12.0,61,0.00,,,0.00,337.000000,,2013-07-17 23:11:00,
2013-07-17 18:22:00,87.0,72.0,-100.00,South,184,4.0,12.0,61,0.00,,,0.00,337.000000,,2013-07-17 23:22:00,
2013-07-17 18:52:00,86.0,70.0,-100.00,SSE,167,3.0,11.0,60,0.00,,,0.00,351.000000,,2013-07-17 23:52:00,
2013-07-17 19:01:00,86.0,70.0,-100.00,SSE,167,3.0,11.0,60,0.00,,,0.00,351.000000,,2013-07-18 00:01:00,
2013-07-17 19:11:00,86.0,70.0,-100.00,SSE,167,3.0,11.0,60,0.00,,,0.00,351.000000,,2013-07-18 00:11:00,
2013-07-17 19:22:00,86.0,70.0,-100.00,SSE,167,3.0,11.0,60,0.00,,,0.00,351.000000,,2013-07-18 00:22:00,
2013-07-17 19:52:00,84.0,70.0,-100.00,SW,236,1.0,7.0,64,0.00,,,0.00,141.000000,,2013-07-18 00:52:00,
2013-07-17 20:01:00,84.0,70.0,-100.00,SW,236,1.0,7.0,64,0.00,,,0.00,141.000000,,2013-07-18 01:01:00,
2013-07-17 20:11:00,84.0,70.0,-100.00,SW,236,1.0,7.0,64,0.00,,,0.00,141.000000,,2013-07-18 01:11:00,
2013-07-17 20:22:00,84.0,70.0,-100.00,SW,236,1.0,7.0,64,0.00,,,0.00,141.000000,,2013-07-18 01:22:00,
2013-07-17 20:53:00,78.0,72.0,-100.00,NNE,23,0.0,2.0,81,0.00,,,0.00,6.000000,,2013-07-18 01:53:00,
2013-07-17 21:02:00,78.0,72.0,-100.00,NNE,23,0.0,2.0,81,0.00,,,0.00,6.000000,,2013-07-18 02:02:00,
2013-07-17 21:11:00,78.0,72.0,-100.00,NNE,23,0.0,2.0,81,0.00,,,0.00,6.000000,,2013-07-18 02:11:00,
2013-07-17 21:22:00,78.0,72.0,-100.00,NNE,23,0.0,2.0,81,0.00,,,0.00,6.000000,,2013-07-18 02:22:00,
2013-07-17 21:52:00,76.0,73.0,-100.00,NNW,347,0.0,2.0,90,0.00,,,0.00,0.000000,,2013-07-18 02:52:00,
2013-07-17 22:01:00,76.0,73.0,-100.00,NNW,347,0.0,2.0,90,0.00,,,0.00,0.000000,,2013-07-18 03:01:00,
2013-07-17 22:11:00,76.0,73.0,-100.00,NNW,347,0.0,2.0,90,0.00,,,0.00,0.000000,,2013-07-18 03:11:00,
2013-07-17 22:22:00,76.0,73.0,-100.00,NNW,347,0.0,2.0,90,0.00,,,0.00,0.000000,,2013-07-18 03:22:00,
2013-07-17 22:52:00,74.0,72.0,-100.00,NNW,345,0.0,0.0,92,0.00,,,0.00,0.000000,,2013-07-18 03:52:00,
2013-07-17 23:02:00,74.0,72.0,-100.00,NNW,345,0.0,0.0,92,0.00,,,0.00,0.000000,,2013-07-18 04:02:00,
2013-07-17 23:12:00,74.0,72.0,-100.00,NNW,345,0.0,0.0,92,0.00,,,0.00,0.000000,,2013-07-18 04:12:00,
2013-07-17 23:22:00,74.0,72.0,-100.00,NNW,345,0.0,0.0,92,0.00,,,0.00,0.000000,,2013-07-18 04:22:00,
2013-07-17 23:52:00,74.0,72.0,-100.00,ESE,114,0.0,2.0,93,0.00,,,0.00,0.000000,,2013-07-18 04:52:00,